sat.trackr.live / text

‹ back to catalog

NEXTSAT-1

NORAD 43811 · 2018-099BF

PAYLOAD ACTIVE UNKNOWN

§ Identity

Operator
Country
SKOR
Launch date
2018-12-03
Launch site
AFWTR
Launch vehicle
Mass (kg)
RCS (m²)

External: N2YO · Heavens-Above · Gunter

§ Orbital elements

Epoch: 2026-09-20T02:15:40.366080Z

Period
95.43 min
Inclination
97.3986°
Eccentricity
0.0012452
Mean motion
15.09015056 rev/d
Perigee alt
530.6 km
Apogee alt
547.8 km
Semi-major
6,917.3 km
B*
8.1537e-5
RAAN
302.4665°
Arg perigee
18.2363°
Mean anomaly
341.9310°
Rev number
42,619

§ Raw data

NEXTSAT-11 43811U 18099BF  26263.09421720  .00001230  00000+0  81537-4 0  99912 43811  97.3986 302.4665 0012452  18.2363 341.9310 15.09015056426199

JSON: /api/v1/satellites/43811 · /tle

For live sub-satellite position, see the globe view (requires WebGL).

§ Visibility from observer

Set your observer location to see the next 7 days of passes ≥ 10°. The values pass through the URL so the page stays shareable.

No JS? Fill the form by hand. The geolocation button needs JavaScript.